Location: Helstorf
(52.5868°N, 9.5862°E)
Time: 08:25:17
(UTC+00:00)

Spot 4 - Pass Details

Date: 15 May 2026
Orbit: 698 x 714 km, 98.2° (Epoch: 5 June)

Event Time Altitude Azimuth Distance (km) Brightness Sun altitude
Exits shadow 21:57:14 24° 132° (SE) 1,437 4.9 -16.3°
Maximum altitude 21:59:50 50° 68° (ENE) 899 4.3 -16.4°
Drops below altitude 10° 22:04:29 10° 353° (N) 2,197 7.6 -16.6°
Sets 22:06:48 0° 349° (N) 3,123 8.9 -16.7°
